Zurück zum Katalog

SL-14 DEB

AktivPO
NORAD 25187·DEBRIS·🇷🇺 Russia

Gestartet Aug 18, 1987 von Plesetsk Cosmodrome

Loading…

Nächste Überflüge (nächste 24 Stunden)

TLE

AktuellSource: Space-Track

Epoche: Sep 12, 2026, 04:31 UTC

1 25187U 87068N   26255.18864738  .00010749  00000-0  16592-2 0  9993
2 25187  82.5309 162.7994 0002282  65.6866 294.4582 14.73273836473609

Verfolge SL-14 DEB in Echtzeit mit AllMySat

Download on the App Store